Tracking 25686 objects as of 25-May-2022
HD Live streaming from Space Station
objects crossing your sky now

COSMOS 917 DEB

Track COSMOS 917 DEB now!


NORAD ID: 26964
Int'l Code: 1977-047E
Perigee: 1,680.3 km
Apogee: 38,342.5 km
Inclination: 64.3 °
Period: 710.8 minutes
Semi major axis: 26382 km
RCS: 0.2518 m2 (medium)
Launch date: June 16, 1977
Source: Commonwealth of Independent States (former USSR) (CIS)
Launch site: PLESETSK MISSILE AND SPACE COMPLEX (PKMTR)

Note: This is SATELLITE DEBRIS
aabbcc
Your satellite tracking list
Your tracking list is empty




NASA's NSSDC Master Catalog

Two Line Element Set (TLE):
1 26964U 77047E   22144.16195011  .00000731  00000-0  00000-0 0  9990
2 26964  64.2871 118.5649 6948240  37.1967 354.7585  2.02596436547287
Source of the keplerian elements: AFSPC